QPF
0.00 0.00 0.00 0.00 0.00 0.00 0.00 0.00 0.00 0.00 0.00 0.00 0.00 0.00 0.00 0.00 0.00 0.00 0.00 0.00 0.00 0.00 0.00 0.00 0.00 0.00 0.00 0.01 0.00 0.00 0.00 0.01 0.01 0.01 0.01 0.01 0.01 0.01 0.01 0.01 0.01 0.01 0.01 0.01 0.01 0.01 0.01 0.01 0.01
0.00 0.00 0.00 0.00 0.00 0.00 0.00 0.00 0.00 0.00 0.00 0.00 0.00 0.00 0.00 0.00 0.00 0.00 0.00 0.00 0.00 0.00 0.00 0.00 0.00 0.00 0.00 0.00 0.00 0.00 0.01 0.01 0.01 0.01 0.01 0.01 0.01 0.01 0.01 0.01 0.01 0.01 0.01 0.01 0.01 0.01 0.01 0.01 0.01
0.00 0.00 0.00 0.00 0.00 0.00 0.00 0.00 0.00 0.00 0.00 0.00 0.00 0.00 0.00 0.00 0.00 0.00 0.00 0.00 0.00 0.00 0.00 0.00 0.00 0.00 0.00 0.00 0.00 0.01 0.01 0.01 0.01 0.01 0.01 0.01 0.01 0.01 0.01 0.01 0.00 0.01 0.01 0.01 0.01 0.01 0.01 0.01 0.01
0.00 0.00 0.00 0.00 0.00 0.00 0.00 0.00 0.00 0.00 0.00 0.00 0.00 0.00 0.00 0.00 0.00 0.00 0.00 0.00 0.00 0.00 0.00 0.00 0.00 0.00 0.00 0.00 0.00 0.00 0.00 0.00 0.01 0.01 0.01 0.01 0.01 0.01 0.01 0.00 0.00 0.01 0.01 0.01 0.01 0.01 0.01 0.01 0.01
0.00 0.00 0.00 0.00 0.00 0.00 0.00 0.00 0.00 0.00 0.00 0.00 0.00 0.00 0.00 0.00 0.00 0.00 0.00 0.00 0.00 0.00 0.00 0.00 0.00 0.00 0.00 0.00 0.00 0.00 0.00 0.00 0.00 0.00 0.00 0.00 0.00 0.00 0.00 0.00 0.00 0.01 0.01 0.01 0.01 0.01 0.01 0.01 0.01
0.00 0.00 0.00 0.00 0.00 0.00 0.00 0.00 0.00 0.00 0.00 0.00 0.00 0.00 0.00 0.00 0.00 0.00 0.00 0.00 0.00 0.00 0.00 0.00 0.00 0.00 0.00 0.00 0.00 0.00 0.00 0.00 0.00 0.00 0.00 0.00 0.00 0.00 0.00 0.00 0.00 0.00 0.01 0.01 0.01 0.01 0.01 0.01 0.01
0.00 0.00 0.00 0.00 0.00 0.00 0.00 0.00 0.00 0.00 0.00 0.00 0.00 0.00 0.00 0.00 0.00 0.00 0.00 0.00 0.00 0.00 0.00 0.00 0.00 0.00 0.00 0.00 0.00 0.00 0.00 0.00 0.00 0.00 0.00 0.00 0.00 0.00 0.00 0.00 0.00 0.00 0.00 0.00 0.00 0.00 0.01 0.00 0.00
0.00 0.00 0.00 0.00 0.00 0.00 0.00 0.00 0.00 0.00 0.00 0.00 0.00 0.00 0.00 0.00 0.00 0.00 0.00 0.00 0.00 0.00 0.00 0.00 0.00 0.00 0.00 0.00 0.00 0.00 0.00 0.00 0.00 0.00 0.00 0.00 0.00 0.00 0.00 0.00 0.00 0.00 0.00 0.00 0.00 0.00 0.00 0.00 0.00
0.00 0.00 0.00 0.00 0.00 0.00 0.00 0.00 0.00 0.00 0.00 0.00 0.00 0.00 0.00 0.00 0.00 0.00 0.00 0.00 0.00 0.00 0.00 0.00 0.00 0.00 0.00 0.00 0.00 0.00 0.00 0.00 0.00 0.00 0.00 0.00 0.00 0.00 0.00 0.00 0.00 0.00 0.00 0.00 0.00 0.00 0.00 0.00 0.00
0.00 0.00 0.00 0.00 0.00 0.00 0.00 0.00 0.00 0.00 0.00 0.00 0.00 0.00 0.00 0.00 0.00 0.00 0.00 0.00 0.00 0.00 0.00 0.00 0.00 0.00 0.00 0.00 0.00 0.00 0.00 0.00 0.00 0.00 0.00 0.00 0.00 0.00 0.00 0.00 0.00 0.00 0.00 0.00 0.00 0.00 0.00 0.00 0.00
0.00 0.00 0.00 0.00 0.00 0.00 0.00 0.00 0.00 0.00 0.00 0.00 0.00 0.00 0.00 0.00 0.00 0.00 0.00 0.00 0.00 0.00 0.00 0.00 0.00 0.00 0.00 0.00 0.00 0.00 0.00 0.00 0.00 0.00 0.00 0.00 0.00 0.00 0.00 0.00 0.00 0.00 0.00 0.00 0.00 0.00 0.00 0.00 0.00
0.00 0.00 0.00 0.00 0.00 0.00 0.00 0.00 0.00 0.00 0.00 0.00 0.00 0.00 0.00 0.00 0.00 0.00 0.00 0.00 0.00 0.00 0.00 0.00 0.00 0.00 0.00 0.00 0.00 0.00 0.00 0.00 0.00 0.00 0.00 0.00 0.00 0.00 0.00 0.00 0.00 0.00 0.00 0.00 0.00 0.00 0.00 0.00 0.00
0.00 0.00 0.00 0.00 0.00 0.00 0.00 0.00 0.00 0.00 0.00 0.00 0.00 0.00 0.00 0.00 0.00 0.00 0.00 0.00 0.00 0.00 0.00 0.00 0.00 0.00 0.00 0.00 0.00 0.00 0.00 0.00 0.00 0.00 0.00 0.00 0.00 0.00 0.00 0.00 0.00 0.00 0.00 0.00 0.00 0.00 0.00 0.00 0.00
0.00 0.00 0.00 0.00 0.00 0.00 0.00 0.00 0.00 0.00 0.00 0.00 0.00 0.00 0.00 0.00 0.00 0.00 0.00 0.00 0.00 0.00 0.00 0.00 0.00 0.00 0.00 0.00 0.00 0.00 0.00 0.00 0.00 0.00 0.00 0.00 0.00 0.00 0.00 0.00 0.00 0.00 0.00 0.00 0.00 0.00 0.00 0.00 0.00
0.00 0.00 0.00 0.00 0.00 0.00 0.00 0.00 0.00 0.00 0.00 0.00 0.00 0.00 0.00 0.00 0.00 0.00 0.00 0.00 0.00 0.00 0.00 0.00 0.00 0.00 0.00 0.00 0.00 0.00 0.00 0.00 0.00 0.00 0.00 0.00 0.00 0.00 0.00 0.00 0.00 0.00 0.00 0.00 0.00 0.00 0.00 0.00 0.00
0.00 0.00 0.00 0.00 0.00 0.00 0.00 0.00 0.00 0.00 0.00 0.00 0.00 0.00 0.00 0.00 0.00 0.00 0.00 0.00 0.00 0.00 0.00 0.00 0.00 0.00 0.00 0.00 0.00 0.00 0.00 0.00 0.00 0.00 0.00 0.00 0.00 0.00 0.00 0.00 0.00 0.00 0.00 0.00 0.00 0.00 0.00 0.00 0.00
0.00 0.00 0.00 0.00 0.00 0.00 0.00 0.00 0.00 0.00 0.00 0.00 0.00 0.00 0.00 0.00 0.00 0.00 0.00 0.00 0.00 0.00 0.00 0.00 0.00 0.00 0.00 0.00 0.00 0.00 0.00 0.00 0.00 0.00 0.00 0.00 0.00 0.00 0.00 0.00 0.00 0.00 0.00 0.00 0.00 0.00 0.00 0.00 0.00
0.00 0.00 0.00 0.00 0.00 0.00 0.00 0.00 0.00 0.00 0.00 0.00 0.00 0.00 0.00 0.00 0.00 0.00 0.00 0.00 0.00 0.00 0.00 0.00 0.00 0.00 0.00 0.00 0.00 0.00 0.00 0.00 0.00 0.00 0.00 0.00 0.00 0.00 0.00 0.00 0.00 0.00 0.00 0.00 0.00 0.00 0.00 0.00 0.00
0.00 0.00 0.00 0.00 0.00 0.00 0.00 0.00 0.00 0.00 0.00 0.00 0.00 0.00 0.00 0.00 0.00 0.00 0.00 0.00 0.00 0.00 0.00 0.00 0.00 0.00 0.00 0.00 0.00 0.00 0.00 0.00 0.00 0.00 0.00 0.00 0.00 0.00 0.00 0.00 0.00 0.00 0.00 0.00 0.00 0.00 0.00 0.00 0.00
0.00 0.00 0.00 0.00 0.00 0.00 0.00 0.00 0.00 0.00 0.00 0.00 0.00 0.00 0.00 0.00 0.00 0.00 0.00 0.00 0.00 0.00 0.00 0.00 0.00 0.00 0.00 0.00 0.00 0.00 0.00 0.00 0.00 0.00 0.00 0.00 0.00 0.00 0.00 0.00 0.00 0.00 0.00 0.00 0.00 0.00 0.00 0.00 0.00
0.00 0.00 0.00 0.00 0.00 0.00 0.00 0.00 0.00 0.00 0.00 0.00 0.00 0.00 0.00 0.00 0.00 0.00 0.00 0.00 0.00 0.00 0.00 0.00 0.00 0.00 0.00 0.00 0.00 0.00 0.00 0.00 0.00 0.00 0.00 0.00 0.00 0.00 0.00 0.00 0.00 0.00 0.00 0.00 0.00 0.00 0.00 0.00 0.00
0.00 0.00 0.00 0.00 0.00 0.00 0.00 0.00 0.00 0.00 0.00 0.00 0.00 0.00 0.00 0.00 0.00 0.00 0.00 0.00 0.00 0.00 0.00 0.00 0.00 0.00 0.00 0.00 0.00 0.00 0.00 0.00 0.00 0.00 0.00 0.00 0.00 0.00 0.00 0.00 0.00 0.00 0.00 0.00 0.00 0.00 0.00 0.01 0.01
0.00 0.00 0.00 0.00 0.00 0.00 0.00 0.00 0.00 0.00 0.00 0.00 0.00 0.00 0.00 0.00 0.00 0.00 0.00 0.00 0.00 0.00 0.00 0.00 0.00 0.00 0.00 0.00 0.00 0.00 0.00 0.00 0.00 0.00 0.00 0.00 0.00 0.00 0.00 0.00 0.00 0.00 0.00 0.00 0.00 0.00 0.01 0.01 0.01
0.00 0.00 0.00 0.00 0.00 0.00 0.00 0.00 0.00 0.00 0.00 0.00 0.00 0.00 0.00 0.00 0.00 0.00 0.00 0.00 0.00 0.00 0.00 0.00 0.00 0.00 0.00 0.00 0.00 0.00 0.00 0.00 0.00 0.00 0.00 0.00 0.00 0.00 0.00 0.00 0.00 0.00 0.00 0.00 0.00 0.01 0.01 0.01 0.01
0.00 0.00 0.00 0.00 0.00 0.00 0.00 0.00 0.00 0.00 0.00 0.00 0.00 0.00 0.00 0.00 0.00 0.00 0.00 0.00 0.00 0.00 0.00 0.00 0.00 0.00 0.00 0.00 0.00 0.00 0.00 0.00 0.00 0.00 0.00 0.00 0.00 0.00 0.00 0.00 0.00 0.00 0.00 0.00 0.01 0.01 0.01 0.01 0.01
0.00 0.00 0.00 0.00 0.00 0.00 0.00 0.00 0.00 0.00 0.00 0.00 0.00 0.00 0.00 0.00 0.00 0.00 0.00 0.00 0.00 0.00 0.00 0.00 0.00 0.00 0.00 0.00 0.00 0.00 0.00 0.00 0.00 0.00 0.00 0.00 0.00 0.00 0.00 0.00 0.00 0.00 0.00 0.01 0.01 0.02 0.01 0.01 0.02
0.00 0.00 0.00 0.00 0.00 0.00 0.00 0.00 0.00 0.00 0.00 0.00 0.00 0.00 0.00 0.00 0.00 0.00 0.00 0.00 0.00 0.00 0.00 0.00 0.00 0.00 0.00 0.00 0.00 0.00 0.00 0.00 0.00 0.00 0.00 0.00 0.00 0.00 0.00 0.00 0.00 0.00 0.01 0.01 0.02 0.03 0.03 0.03 0.04
0.00 0.00 0.00 0.00 0.00 0.00 0.00 0.00 0.00 0.00 0.00 0.00 0.00 0.00 0.00 0.00 0.00 0.00 0.00 0.00 0.00 0.00 0.00 0.00 0.00 0.00 0.00 0.00 0.00 0.00 0.00 0.00 0.00 0.00 0.00 0.00 0.00 0.00 0.00 0.00 0.00 0.00 0.01 0.02 0.03 0.03 0.05 0.07 0.07
0.00 0.00 0.00 0.00 0.00 0.00 0.00 0.00 0.00 0.00 0.00 0.00 0.00 0.00 0.00 0.00 0.00 0.00 0.00 0.00 0.00 0.00 0.00 0.00 0.00 0.00 0.00 0.00 0.00 0.00 0.00 0.00 0.00 0.00 0.00 0.00 0.00 0.00 0.00 0.00 0.00 0.00 0.01 0.02 0.02 0.03 0.05 0.07 0.09
0.00 0.00 0.00 0.00 0.00 0.00 0.00 0.00 0.00 0.00 0.00 0.00 0.00 0.00 0.00 0.00 0.00 0.00 0.00 0.00 0.00 0.00 0.00 0.00 0.00 0.00 0.00 0.00 0.00 0.00 0.00 0.00 0.00 0.00 0.00 0.00 0.00 0.00 0.00 0.00 0.00 0.00 0.01 0.01 0.02 0.02 0.03 0.04 0.06
MSLP
1015.91 1016.39 1017.32 1018.70 1020.44 1022.40 1024.39 1026.21 1027.71 1028.79 1029.46 1029.82 1029.99 1030.13 1030.39 1030.83 1031.47 1032.22 1032.97 1033.59 1033.97 1034.05 1033.83 1033.37 1032.76 1032.11 1031.49 1030.94 1030.49 1030.09 1029.70 1029.31 1028.88 1028.42 1027.96 1027.52 1027.12 1026.77 1026.43 1026.09 1025.70 1025.25 1024.71 1024.12 1023.51 1022.91 1022.35 1021.85 1021.38
1016.38 1017.12 1018.31 1019.90 1021.79 1023.81 1025.77 1027.49 1028.84 1029.76 1030.29 1030.53 1030.65 1030.79 1031.08 1031.57 1032.25 1033.02 1033.77 1034.36 1034.68 1034.70 1034.42 1033.90 1033.25 1032.57 1031.94 1031.39 1030.93 1030.53 1030.17 1029.79 1029.40 1028.98 1028.56 1028.15 1027.77 1027.41 1027.05 1026.66 1026.21 1025.69 1025.11 1024.49 1023.86 1023.26 1022.72 1022.22 1021.77
1016.94 1017.91 1019.30 1021.04 1023.00 1025.01 1026.87 1028.45 1029.64 1030.40 1030.81 1031.00 1031.12 1031.30 1031.67 1032.23 1032.97 1033.78 1034.52 1035.07 1035.34 1035.29 1034.96 1034.40 1033.73 1033.04 1032.40 1031.86 1031.41 1031.02 1030.67 1030.32 1029.94 1029.55 1029.16 1028.76 1028.38 1028.00 1027.61 1027.16 1026.65 1026.08 1025.45 1024.79 1024.15 1023.55 1023.01 1022.53 1022.08
1017.55 1018.72 1020.25 1022.07 1024.02 1025.94 1027.67 1029.07 1030.09 1030.71 1031.05 1031.22 1031.37 1031.64 1032.10 1032.76 1033.55 1034.38 1035.11 1035.62 1035.84 1035.75 1035.38 1034.81 1034.15 1033.48 1032.87 1032.35 1031.91 1031.54 1031.20 1030.85 1030.48 1030.10 1029.71 1029.31 1028.92 1028.52 1028.08 1027.60 1027.04 1026.42 1025.75 1025.08 1024.42 1023.82 1023.29 1022.81 1022.35
1018.24 1019.55 1021.16 1022.98 1024.85 1026.62 1028.17 1029.38 1030.23 1030.74 1031.03 1031.22 1031.45 1031.81 1032.37 1033.10 1033.94 1034.77 1035.47 1035.94 1036.12 1036.00 1035.63 1035.09 1034.48 1033.86 1033.31 1032.83 1032.43 1032.06 1031.71 1031.35 1030.97 1030.57 1030.17 1029.77 1029.36 1028.94 1028.49 1027.97 1027.39 1026.75 1026.07 1025.38 1024.72 1024.11 1023.57 1023.07 1022.59
1019.03 1020.42 1022.05 1023.80 1025.53 1027.12 1028.45 1029.46 1030.16 1030.58 1030.85 1031.08 1031.39 1031.85 1032.49 1033.28 1034.13 1034.94 1035.60 1036.02 1036.16 1036.05 1035.71 1035.24 1034.70 1034.18 1033.71 1033.29 1032.92 1032.57 1032.20 1031.81 1031.40 1030.98 1030.55 1030.13 1029.71 1029.28 1028.82 1028.30 1027.72 1027.09 1026.41 1025.72 1025.06 1024.44 1023.87 1023.35 1022.83
1019.96 1021.39 1022.97 1024.59 1026.14 1027.50 1028.61 1029.43 1029.99 1030.35 1030.61 1030.90 1031.28 1031.82 1032.52 1033.33 1034.17 1034.93 1035.53 1035.90 1036.02 1035.92 1035.65 1035.27 1034.85 1034.44 1034.06 1033.72 1033.38 1033.02 1032.64 1032.22 1031.77 1031.30 1030.85 1030.41 1029.99 1029.56 1029.11 1028.61 1028.05 1027.43 1026.77 1026.10 1025.44 1024.80 1024.20 1023.63 1023.07
1021.04 1022.46 1023.95 1025.40 1026.73 1027.86 1028.74 1029.38 1029.82 1030.13 1030.41 1030.74 1031.19 1031.79 1032.52 1033.32 1034.12 1034.81 1035.34 1035.67 1035.78 1035.72 1035.52 1035.24 1034.94 1034.65 1034.37 1034.09 1033.78 1033.43 1033.02 1032.56 1032.07 1031.58 1031.11 1030.66 1030.24 1029.82 1029.39 1028.91 1028.37 1027.78 1027.14 1026.48 1025.81 1025.16 1024.52 1023.91 1023.29
1022.24 1023.61 1024.97 1026.23 1027.33 1028.23 1028.90 1029.37 1029.71 1029.98 1030.27 1030.65 1031.16 1031.79 1032.53 1033.30 1034.03 1034.66 1035.13 1035.41 1035.53 1035.50 1035.38 1035.21 1035.03 1034.84 1034.64 1034.41 1034.12 1033.76 1033.34 1032.86 1032.34 1031.84 1031.35 1030.90 1030.48 1030.08 1029.65 1029.19 1028.67 1028.09 1027.46 1026.80 1026.13 1025.46 1024.80 1024.14 1023.47
1023.48 1024.77 1025.98 1027.05 1027.93 1028.60 1029.08 1029.42 1029.67 1029.91 1030.22 1030.63 1031.17 1031.82 1032.54 1033.27 1033.95 1034.51 1034.93 1035.19 1035.32 1035.34 1035.30 1035.22 1035.13 1035.02 1034.87 1034.67 1034.39 1034.03 1033.60 1033.10 1032.59 1032.08 1031.61 1031.17 1030.75 1030.34 1029.92 1029.45 1028.92 1028.33 1027.70 1027.04 1026.36 1025.67 1024.99 1024.29 1023.58
1024.65 1025.84 1026.90 1027.77 1028.45 1028.93 1029.26 1029.48 1029.67 1029.90 1030.21 1030.65 1031.20 1031.85 1032.55 1033.24 1033.86 1034.38 1034.77 1035.04 1035.19 1035.27 1035.30 1035.29 1035.25 1035.19 1035.06 1034.87 1034.59 1034.22 1033.78 1033.30 1032.81 1032.33 1031.87 1031.45 1031.04 1030.62 1030.17 1029.67 1029.11 1028.49 1027.84 1027.15 1026.46 1025.77 1025.07 1024.35 1023.62
1025.63 1026.71 1027.62 1028.32 1028.83 1029.16 1029.36 1029.51 1029.66 1029.88 1030.20 1030.64 1031.20 1031.83 1032.50 1033.15 1033.75 1034.25 1034.64 1034.93 1035.13 1035.27 1035.36 1035.40 1035.40 1035.34 1035.21 1035.00 1034.70 1034.33 1033.90 1033.45 1032.99 1032.56 1032.14 1031.74 1031.33 1030.90 1030.41 1029.85 1029.23 1028.56 1027.86 1027.15 1026.45 1025.74 1025.04 1024.32 1023.57
1026.33 1027.29 1028.05 1028.62 1028.99 1029.21 1029.35 1029.45 1029.58 1029.80 1030.12 1030.56 1031.10 1031.71 1032.35 1032.97 1033.55 1034.06 1034.49 1034.83 1035.10 1035.30 1035.44 1035.52 1035.53 1035.45 1035.29 1035.05 1034.73 1034.35 1033.94 1033.53 1033.13 1032.76 1032.39 1032.02 1031.62 1031.16 1030.62 1029.99 1029.30 1028.56 1027.81 1027.06 1026.33 1025.63 1024.92 1024.20 1023.44
1026.68 1027.52 1028.17 1028.62 1028.90 1029.07 1029.17 1029.25 1029.39 1029.61 1029.92 1030.35 1030.86 1031.44 1032.05 1032.66 1033.25 1033.79 1034.27 1034.69 1035.04 1035.32 1035.51 1035.62 1035.62 1035.52 1035.32 1035.03 1034.68 1034.29 1033.90 1033.54 1033.21 1032.90 1032.59 1032.26 1031.86 1031.37 1030.79 1030.09 1029.33 1028.52 1027.71 1026.93 1026.18 1025.46 1024.76 1024.03 1023.27
1026.74 1027.46 1027.99 1028.36 1028.59 1028.73 1028.83 1028.93 1029.07 1029.29 1029.61 1030.01 1030.49 1031.03 1031.61 1032.21 1032.81 1033.40 1033.96 1034.47 1034.91 1035.27 1035.53 1035.66 1035.66 1035.53 1035.28 1034.95 1034.57 1034.18 1033.81 1033.49 1033.22 1032.97 1032.72 1032.43 1032.04 1031.54 1030.91 1030.16 1029.33 1028.47 1027.61 1026.79 1026.02 1025.30 1024.59 1023.86 1023.07
1026.58 1027.17 1027.61 1027.92 1028.12 1028.25 1028.36 1028.48 1028.65 1028.87 1029.17 1029.54 1029.98 1030.48 1031.04 1031.63 1032.26 1032.91 1033.55 1034.15 1034.70 1035.14 1035.46 1035.63 1035.64 1035.49 1035.22 1034.85 1034.45 1034.05 1033.70 1033.41 1033.18 1032.98 1032.77 1032.50 1032.13 1031.62 1030.97 1030.20 1029.33 1028.43 1027.54 1026.70 1025.91 1025.17 1024.45 1023.71 1022.90
1026.32 1026.79 1027.14 1027.38 1027.56 1027.70 1027.83 1027.97 1028.14 1028.37 1028.64 1028.98 1029.37 1029.84 1030.37 1030.97 1031.63 1032.34 1033.06 1033.77 1034.41 1034.94 1035.33 1035.55 1035.57 1035.43 1035.14 1034.77 1034.35 1033.94 1033.59 1033.32 1033.10 1032.93 1032.74 1032.49 1032.13 1031.62 1030.97 1030.18 1029.31 1028.40 1027.50 1026.64 1025.85 1025.09 1024.36 1023.61 1022.78
1026.08 1026.42 1026.68 1026.87 1027.01 1027.14 1027.27 1027.42 1027.59 1027.79 1028.04 1028.34 1028.70 1029.13 1029.66 1030.27 1030.97 1031.74 1032.54 1033.34 1034.07 1034.69 1035.15 1035.42 1035.49 1035.37 1035.09 1034.72 1034.29 1033.89 1033.53 1033.24 1033.02 1032.84 1032.65 1032.39 1032.03 1031.53 1030.89 1030.11 1029.25 1028.35 1027.46 1026.61 1025.81 1025.06 1024.32 1023.55 1022.71
1025.94 1026.17 1026.33 1026.45 1026.55 1026.64 1026.74 1026.86 1027.00 1027.17 1027.38 1027.64 1027.98 1028.40 1028.93 1029.58 1030.33 1031.16 1032.04 1032.91 1033.73 1034.42 1034.95 1035.28 1035.40 1035.32 1035.07 1034.72 1034.31 1033.89 1033.52 1033.21 1032.96 1032.73 1032.50 1032.22 1031.84 1031.34 1030.71 1029.96 1029.13 1028.27 1027.40 1026.57 1025.78 1025.02 1024.28 1023.51 1022.68
1025.95 1026.07 1026.13 1026.17 1026.20 1026.22 1026.26 1026.31 1026.38 1026.49 1026.66 1026.89 1027.22 1027.66 1028.23 1028.93 1029.74 1030.64 1031.59 1032.53 1033.41 1034.16 1034.75 1035.13 1035.31 1035.28 1035.09 1034.77 1034.38 1033.97 1033.58 1033.22 1032.91 1032.62 1032.33 1031.99 1031.58 1031.06 1030.45 1029.72 1028.93 1028.10 1027.27 1026.46 1025.69 1024.94 1024.21 1023.46 1022.66
1026.09 1026.12 1026.09 1026.04 1025.97 1025.89 1025.82 1025.76 1025.74 1025.78 1025.89 1026.11 1026.45 1026.93 1027.56 1028.33 1029.23 1030.21 1031.22 1032.22 1033.14 1033.93 1034.55 1034.98 1035.21 1035.23 1035.10 1034.83 1034.48 1034.08 1033.67 1033.27 1032.89 1032.52 1032.14 1031.73 1031.26 1030.72 1030.10 1029.40 1028.64 1027.84 1027.04 1026.25 1025.50 1024.77 1024.07 1023.35 1022.61
1026.32 1026.28 1026.17 1026.03 1025.84 1025.64 1025.43 1025.23 1025.09 1025.03 1025.09 1025.29 1025.66 1026.21 1026.93 1027.81 1028.81 1029.87 1030.95 1031.98 1032.92 1033.73 1034.37 1034.82 1035.07 1035.15 1035.07 1034.86 1034.55 1034.17 1033.76 1033.32 1032.87 1032.42 1031.95 1031.46 1030.93 1030.35 1029.71 1029.01 1028.26 1027.49 1026.71 1025.94 1025.19 1024.49 1023.81 1023.14 1022.46
1026.56 1026.49 1026.33 1026.10 1025.80 1025.45 1025.08 1024.73 1024.45 1024.28 1024.28 1024.47 1024.89 1025.52 1026.36 1027.36 1028.46 1029.62 1030.75 1031.81 1032.76 1033.55 1034.17 1034.62 1034.89 1035.01 1034.97 1034.82 1034.56 1034.21 1033.80 1033.34 1032.84 1032.32 1031.77 1031.20 1030.60 1029.97 1029.30 1028.59 1027.84 1027.08 1026.30 1025.53 1024.79 1024.09 1023.44 1022.81 1022.21
1026.77 1026.70 1026.51 1026.22 1025.81 1025.33 1024.80 1024.28 1023.85 1023.57 1023.50 1023.69 1024.15 1024.88 1025.84 1026.97 1028.19 1029.44 1030.62 1031.70 1032.63 1033.39 1033.97 1034.39 1034.65 1034.78 1034.78 1034.68 1034.47 1034.16 1033.77 1033.31 1032.78 1032.21 1031.59 1030.96 1030.30 1029.62 1028.91 1028.18 1027.43 1026.65 1025.87 1025.09 1024.34 1023.64 1022.98 1022.39 1021.83
1026.92 1026.88 1026.69 1026.36 1025.87 1025.26 1024.58 1023.91 1023.33 1022.94 1022.81 1022.99 1023.49 1024.31 1025.39 1026.64 1027.97 1029.30 1030.53 1031.62 1032.52 1033.23 1033.76 1034.13 1034.36 1034.48 1034.50 1034.43 1034.27 1034.01 1033.65 1033.21 1032.67 1032.08 1031.43 1030.75 1030.05 1029.33 1028.60 1027.84 1027.07 1026.28 1025.47 1024.67 1023.90 1023.17 1022.50 1021.91 1021.38
1026.99 1027.00 1026.84 1026.49 1025.95 1025.25 1024.45 1023.64 1022.92 1022.42 1022.23 1022.39 1022.93 1023.81 1024.99 1026.34 1027.77 1029.17 1030.45 1031.53 1032.41 1033.06 1033.53 1033.85 1034.03 1034.13 1034.16 1034.11 1033.99 1033.77 1033.46 1033.04 1032.52 1031.93 1031.27 1030.57 1029.85 1029.11 1028.36 1027.59 1026.81 1026.00 1025.17 1024.34 1023.53 1022.77 1022.07 1021.45 1020.90
1026.98 1027.05 1026.93 1026.59 1026.03 1025.26 1024.37 1023.45 1022.62 1022.03 1021.77 1021.90 1022.45 1023.38 1024.62 1026.05 1027.56 1029.01 1030.32 1031.41 1032.26 1032.87 1033.29 1033.55 1033.69 1033.77 1033.78 1033.75 1033.65 1033.47 1033.20 1032.82 1032.33 1031.76 1031.11 1030.42 1029.69 1028.96 1028.21 1027.44 1026.65 1025.83 1024.99 1024.13 1023.29 1022.48 1021.73 1021.06 1020.47
1026.89 1027.02 1026.94 1026.63 1026.05 1025.25 1024.30 1023.30 1022.40 1021.73 1021.41 1021.50 1022.04 1022.98 1024.25 1025.73 1027.28 1028.77 1030.10 1031.20 1032.04 1032.64 1033.02 1033.25 1033.36 1033.41 1033.42 1033.39 1033.31 1033.16 1032.92 1032.57 1032.12 1031.57 1030.95 1030.27 1029.57 1028.84 1028.11 1027.35 1026.58 1025.77 1024.93 1024.06 1023.20 1022.35 1021.55 1020.82 1020.16
1026.74 1026.89 1026.84 1026.53 1025.96 1025.15 1024.16 1023.13 1022.17 1021.45 1021.08 1021.14 1021.65 1022.57 1023.84 1025.33 1026.89 1028.41 1029.75 1030.87 1031.73 1032.33 1032.71 1032.94 1033.05 1033.09 1033.10 1033.08 1033.00 1032.87 1032.64 1032.32 1031.89 1031.36 1030.77 1030.12 1029.44 1028.74 1028.03 1027.30 1026.55 1025.77 1024.95 1024.09 1023.22 1022.36 1021.52 1020.73 1020.00
1026.50 1026.63 1026.57 1026.26 1025.69 1024.88 1023.89 1022.85 1021.88 1021.13 1020.73 1020.75 1021.22 1022.11 1023.34 1024.80 1026.36 1027.88 1029.25 1030.39 1031.28 1031.92 1032.35 1032.61 1032.74 1032.81 1032.83 1032.81 1032.74 1032.61 1032.39 1032.07 1031.65 1031.14 1030.56 1029.93 1029.27 1028.60 1027.92 1027.22 1026.51 1025.76 1024.98 1024.16 1023.31 1022.45 1021.59 1020.77 1019.98
Thickness
5741 5742 5744 5742 5728 5701 5668 5654 5656 5647 5644 5638 5637 5638 5636 5629 5628 5615 5597 5594 5593 5594 5596 5599 5602 5604 5606 5608 5609 5611 5612 5614 5615 5616 5617 5618 5620 5621 5623 5624 5627 5630 5633 5637 5641 5644 5648 5652 5656
5742 5743 5741 5734 5718 5690 5656 5653 5651 5647 5640 5636 5633 5633 5630 5619 5612 5605 5597 5592 5591 5591 5592 5594 5597 5599 5601 5602 5603 5604 5605 5605 5606 5606 5606 5607 5608 5609 5611 5612 5614 5617 5620 5624 5627 5631 5635 5640 5644
5743 5743 5729 5715 5696 5683 5658 5652 5647 5642 5638 5636 5630 5626 5623 5615 5607 5601 5592 5588 5588 5588 5588 5589 5591 5593 5595 5595 5595 5595 5595 5596 5595 5595 5595 5595 5595 5596 5598 5598 5600 5603 5606 5609 5613 5616 5621 5626 5630
5745 5736 5722 5699 5671 5658 5662 5654 5646 5640 5636 5635 5632 5622 5614 5604 5602 5596 5588 5585 5585 5583 5582 5582 5583 5585 5586 5586 5586 5586 5585 5585 5585 5584 5583 5583 5582 5582 5584 5584 5586 5588 5591 5594 5597 5600 5605 5610 5615
5745 5733 5709 5680 5664 5655 5657 5653 5649 5647 5641 5634 5631 5622 5610 5599 5594 5589 5584 5581 5580 5578 5576 5575 5575 5575 5576 5576 5576 5575 5574 5574 5572 5571 5570 5569 5568 5567 5568 5568 5569 5571 5573 5576 5578 5582 5586 5591 5596
5738 5731 5706 5681 5665 5656 5654 5650 5648 5645 5637 5630 5627 5621 5608 5596 5592 5585 5580 5577 5574 5572 5570 5568 5567 5566 5566 5566 5565 5563 5562 5561 5558 5556 5555 5553 5551 5550 5550 5549 5550 5552 5553 5556 5558 5561 5566 5571 5575
5732 5717 5700 5686 5671 5659 5653 5648 5648 5644 5637 5630 5627 5620 5606 5597 5589 5581 5577 5573 5570 5566 5564 5562 5561 5559 5557 5556 5554 5552 5550 5548 5545 5542 5540 5537 5535 5533 5531 5529 5529 5529 5530 5531 5533 5537 5541 5547 5552
5730 5714 5690 5684 5676 5664 5651 5644 5641 5641 5633 5624 5622 5619 5609 5598 5585 5578 5573 5569 5565 5561 5558 5555 5553 5550 5549 5547 5543 5540 5537 5534 5531 5528 5525 5522 5519 5515 5511 5507 5504 5503 5502 5502 5503 5506 5511 5516 5522
5729 5714 5690 5681 5676 5663 5650 5642 5633 5630 5626 5619 5616 5616 5610 5596 5583 5577 5572 5568 5562 5557 5552 5546 5543 5540 5537 5536 5532 5529 5526 5521 5518 5514 5508 5504 5499 5494 5488 5482 5477 5474 5471 5470 5470 5473 5477 5482 5490
5721 5702 5681 5673 5674 5662 5649 5644 5634 5628 5624 5618 5611 5605 5599 5589 5582 5577 5572 5566 5559 5552 5545 5539 5535 5531 5529 5526 5523 5519 5514 5508 5502 5496 5490 5483 5476 5469 5462 5456 5451 5446 5442 5439 5438 5439 5444 5448 5456
5697 5682 5666 5660 5660 5656 5645 5639 5633 5632 5627 5625 5618 5606 5597 5588 5581 5574 5567 5559 5551 5545 5538 5532 5527 5523 5520 5517 5513 5508 5501 5494 5487 5479 5471 5463 5456 5447 5439 5431 5425 5419 5414 5411 5408 5408 5410 5414 5419
5682 5664 5663 5656 5649 5648 5643 5636 5631 5633 5633 5628 5618 5606 5596 5588 5580 5571 5563 5553 5545 5538 5531 5525 5519 5514 5510 5506 5501 5495 5488 5479 5471 5462 5453 5443 5434 5424 5414 5405 5396 5390 5386 5381 5379 5378 5380 5382 5386
5676 5658 5653 5649 5645 5642 5637 5634 5633 5630 5623 5621 5612 5601 5594 5587 5577 5566 5556 5547 5540 5532 5524 5517 5512 5506 5501 5495 5488 5481 5472 5463 5454 5444 5432 5420 5409 5397 5386 5377 5369 5363 5357 5353 5350 5350 5352 5354 5358
5666 5659 5651 5647 5643 5637 5634 5630 5628 5629 5619 5614 5606 5598 5591 5583 5572 5562 5552 5543 5534 5525 5518 5510 5505 5498 5491 5483 5476 5467 5457 5447 5437 5424 5411 5396 5382 5370 5359 5350 5343 5337 5331 5326 5324 5323 5325 5328 5332
5667 5660 5652 5646 5642 5636 5633 5630 5631 5630 5618 5611 5604 5597 5588 5578 5567 5559 5548 5538 5529 5520 5512 5504 5497 5489 5481 5472 5463 5453 5442 5431 5418 5404 5389 5372 5357 5344 5334 5326 5318 5312 5306 5301 5299 5298 5299 5303 5307
5670 5668 5665 5651 5642 5634 5632 5650 5644 5628 5617 5611 5604 5597 5585 5575 5565 5555 5543 5534 5524 5514 5506 5497 5488 5479 5470 5460 5449 5438 5425 5413 5399 5383 5366 5349 5333 5320 5310 5303 5296 5288 5281 5276 5274 5273 5275 5278 5283
5675 5677 5673 5658 5644 5637 5633 5647 5638 5625 5617 5612 5605 5596 5585 5575 5563 5552 5541 5530 5519 5508 5499 5490 5479 5469 5459 5448 5436 5423 5410 5395 5378 5360 5342 5326 5313 5301 5290 5281 5273 5265 5257 5252 5249 5250 5250 5255 5260
5678 5677 5672 5668 5651 5639 5637 5645 5640 5623 5616 5613 5606 5597 5587 5577 5566 5552 5538 5526 5513 5502 5491 5481 5470 5459 5448 5436 5423 5409 5394 5377 5358 5339 5322 5307 5295 5283 5272 5262 5252 5242 5235 5230 5226 5225 5226 5229 5235
5676 5673 5671 5665 5647 5640 5645 5646 5646 5630 5616 5612 5608 5599 5589 5579 5568 5550 5535 5521 5508 5496 5485 5473 5461 5449 5437 5424 5410 5396 5380 5361 5342 5323 5305 5291 5279 5267 5255 5243 5233 5222 5214 5206 5199 5196 5197 5202 5207
5670 5669 5669 5661 5641 5639 5647 5648 5651 5642 5623 5615 5610 5601 5592 5580 5566 5546 5531 5517 5504 5491 5477 5465 5452 5439 5425 5410 5396 5380 5364 5346 5327 5308 5292 5277 5264 5251 5238 5225 5214 5202 5191 5181 5172 5166 5165 5168 5173
5668 5666 5663 5656 5646 5636 5636 5661 5650 5633 5621 5614 5607 5601 5594 5581 5566 5545 5529 5515 5500 5485 5470 5455 5442 5428 5414 5399 5383 5367 5350 5332 5314 5297 5281 5265 5251 5237 5222 5209 5196 5182 5168 5159 5150 5141 5137 5138 5141
5669 5658 5653 5648 5647 5654 5638 5656 5664 5641 5628 5617 5608 5601 5592 5580 5565 5547 5528 5512 5495 5478 5461 5447 5433 5419 5404 5388 5372 5355 5338 5321 5302 5284 5269 5255 5240 5225 5210 5196 5181 5165 5152 5142 5133 5124 5117 5113 5117
5662 5653 5650 5646 5646 5649 5642 5648 5668 5638 5641 5635 5620 5607 5594 5579 5562 5543 5524 5506 5487 5469 5453 5438 5424 5410 5394 5378 5360 5343 5325 5306 5289 5274 5260 5246 5231 5215 5201 5186 5169 5154 5141 5132 5123 5115 5107 5101 5099
5656 5653 5649 5646 5650 5656 5646 5644 5659 5656 5648 5637 5622 5608 5594 5575 5556 5537 5518 5498 5480 5462 5446 5430 5416 5401 5385 5368 5350 5332 5314 5296 5281 5266 5253 5238 5223 5208 5194 5177 5161 5146 5135 5127 5119 5112 5104 5097 5094
5660 5666 5669 5667 5664 5663 5636 5636 5655 5657 5643 5631 5621 5607 5591 5570 5550 5531 5511 5492 5475 5457 5440 5423 5409 5394 5376 5359 5341 5322 5304 5287 5272 5259 5245 5231 5217 5203 5189 5172 5156 5141 5132 5125 5120 5114 5107 5101 5097
5659 5661 5657 5648 5653 5658 5639 5641 5665 5650 5634 5620 5609 5599 5585 5566 5547 5528 5509 5489 5470 5451 5434 5418 5403 5386 5368 5350 5332 5315 5297 5280 5264 5251 5237 5223 5209 5195 5181 5166 5151 5138 5131 5125 5122 5118 5113 5108 5105
5658 5655 5646 5648 5640 5635 5654 5656 5660 5644 5632 5621 5610 5596 5581 5562 5543 5524 5504 5484 5465 5446 5429 5412 5397 5380 5361 5343 5326 5309 5291 5274 5259 5245 5231 5218 5204 5190 5177 5163 5149 5137 5130 5125 5123 5121 5118 5116 5115
5650 5651 5645 5643 5637 5639 5653 5653 5654 5660 5654 5635 5617 5601 5583 5560 5540 5521 5500 5479 5460 5441 5424 5408 5391 5373 5355 5338 5321 5303 5285 5269 5255 5241 5228 5215 5201 5188 5175 5162 5148 5137 5129 5125 5122 5122 5121 5121 5121
5644 5641 5641 5639 5635 5632 5637 5658 5667 5662 5653 5639 5627 5609 5587 5562 5540 5519 5498 5477 5456 5438 5421 5405 5387 5369 5351 5334 5316 5299 5282 5266 5252 5239 5226 5214 5201 5188 5175 5162 5149 5137 5129 5123 5121 5120 5120 5120 5122
5650 5651 5646 5644 5638 5625 5626 5649 5671 5657 5646 5633 5623 5609 5588 5563 5540 5518 5496 5474 5454 5436 5420 5402 5383 5365 5347 5330 5313 5296 5280 5265 5251 5238 5226 5213 5201 5188 5176 5163 5150 5138 5128 5121 5118 5118 5117 5117 5118